User: anonymous   Login
Location: ?????
(33.6267°N, 35.4675°E)
Time: 18:13:05
(UTC+00:00)
Language:

ATLAS 5 CENTAUR R/B - Orbit

View from above orbital plane
View from above orbital plane
View from above satellite
View from above satellite

Ground track
Ground track

The orbit data is extracted from the following two-line orbital elements,

1 31702U 07027B   21022.74259123 0.00000220  00000-0  41609-4 0    00
2 31702  63.3616 343.8722 0428250  17.6200 342.3800 14.18866840    02
Epoch (UTC): 22 January 2021 17:49:19
Eccentricity: 0.0428250
inclination: 63.3616°
perigee height: 520 km
apogee height: 1138 km
right ascension of ascending node: 343.8722°
argument of perigee: 17.6200°
revolutions per day: 14.18866840
mean anomaly at epoch: 342.3800°
orbit number at epoch: 0

The dashed part of the orbit path shows where the satellite is in the earth's shadow,  

DLR